| time (UTC) | temp F | wind direction | speed knots | gust knots | rain 1hr in | rain 24hr in | rain mn in | humidity % | barometer mb |
| 20260505213051 | 74 | 296 | 5.2 | 9.6 | 0.00 | 0.00 | 0.00 | 64 | 1016.4 |
| 20260505211529 | 74 | 30 | 4.3 | 11.3 | 0.00 | 0.00 | 0.00 | 65 | 1016.3 |
| 20260505204545 | 75 | 232 | 3.5 | 8.7 | 0.00 | 0.00 | 0.00 | 65 | 1016.2 |
| 20260505203014 | 74 | 271 | 4.3 | 9.6 | 0.00 | 0.00 | 0.00 | 66 | 1016.2 |
| 20260505201551 | 75 | 182 | 5.2 | 10.4 | 0.00 | 0.00 | 0.00 | 66 | 1016.3 |
| 20260505200026 | 75 | 171 | 4.3 | 10.4 | 0.00 | 0.00 | 0.00 | 64 | 1016.6 |
| 20260505194503 | 76 | 221 | 4.3 | 12.2 | 0.00 | 0.00 | 0.00 | 64 | 1016.9 |
| 20260505193042 | 77 | 51 | 4.3 | 9.6 | 0.00 | 0.00 | 0.00 | 62 | 1017.3 |
| 20260505191509 | 76 | 177 | 4.3 | 11.3 | 0.00 | 0.00 | 0.00 | 63 | 1017.6 |
| 20260505190045 | 76 | 185 | 4.3 | 9.6 | 0.00 | 0.00 | 0.00 | 62 | 1017.7 |
| 20260505184518 | 76 | 200 | 4.3 | 9.6 | 0.00 | 0.00 | 0.00 | 60 | 1017.6 |
| 20260505183053 | 75 | 196 | 4.3 | 12.2 | 0.00 | 0.00 | 0.00 | 60 | 1017.4 |
| 20260505181529 | 75 | 161 | 5.2 | 10.4 | 0.00 | 0.00 | 0.00 | 63 | 1017.6 |
| 20260505180100 | 75 | 196 | 4.3 | 9.6 | 0.00 | 0.00 | 0.00 | 64 | 1017.4 |
| 20260505174531 | 75 | 172 | 4.3 | 12.2 | 0.00 | 0.00 | 0.00 | 65 | 1017.3 |
| 20260505173005 | 75 | 84 | 3.5 | 12.2 | 0.00 | 0.00 | 0.00 | 65 | 1017.4 |
| 20260505171543 | 75 | 221 | 5.2 | 10.4 | 0.00 | 0.00 | 0.00 | 65 | 1017.8 |
| 20260505170012 | 75 | 200 | 4.3 | 10.4 | 0.00 | 0.00 | 0.00 | 65 | 1017.9 |
| 20260505164558 | 74 | 115 | 3.5 | 10.4 | 0.00 | 0.00 | 0.00 | 65 | 1018.0 |
| 20260505163020 | 75 | 240 | 4.3 | 11.3 | 0.00 | 0.00 | 0.00 | 66 | 1018.0 |
| 20260505161559 | 75 | 169 | 5.2 | 11.3 | 0.00 | 0.00 | 0.00 | 65 | 1018.2 |
| 20260505153036 | 74 | 242 | 4.3 | 13.0 | 0.00 | 0.00 | 0.00 | 63 | 1018.3 |
| 20260505151508 | 74 | 235 | 3.5 | 10.4 | 0.00 | 0.00 | 0.00 | 64 | 1018.1 |
| 20260505124559 | 70 | 178 | 2.6 | 5.2 | 0.00 | 0.00 | 0.00 | 75 | 1017.5 |
| 20260505123023 | 70 | 247 | 0.9 | 5.2 | 0.00 | 0.00 | 0.00 | 76 | 1017.4 |
| 20260505121551 | 70 | 355 | 1.7 | 4.3 | 0.00 | 0.00 | 0.00 | 77 | 1017.3 |
| 20260505120016 | 69 | 242 | 0.0 | 1.7 | 0.00 | 0.00 | 0.00 | 78 | 1017.2 |
| 20260505114537 | 67 | 196 | 0.0 | 3.5 | 0.00 | 0.00 | 0.00 | 80 | 1017.0 |
| 20260505113009 | 66 | 211 | 0.0 | 2.6 | 0.00 | 0.00 | 0.00 | 82 | 1017.0 |
| 20260505111543 | 65 | 24 | 0.0 | 3.5 | 0.00 | 0.00 | 0.00 | 85 | 1016.8 |
| 20260505101506 | 64 | 267 | 0.9 | 2.6 | 0.00 | 0.00 | 0.00 | 84 | 1016.3 |
| 20260505100043 | 63 | 293 | 0.0 | 2.6 | 0.00 | 0.00 | 0.00 | 84 | 1016.2 |
| 20260505094519 | 63 | 180 | 0.0 | 1.7 | 0.00 | 0.00 | 0.00 | 84 | 1016.2 |
| 20260505093102 | 64 | 288 | 0.0 | 0.0 | 0.00 | 0.00 | 0.00 | 84 | 1016.0 |
| 20260505091530 | 64 | 178 | 0.0 | 2.6 | 0.00 | 0.00 | 0.00 | 84 | 1016.0 |
| 20260505090001 | 64 | 229 | 0.0 | 3.5 | 0.00 | 0.00 | 0.00 | 84 | 1015.8 |
| 20260505084544 | 64 | 187 | 0.0 | 3.5 | 0.00 | 0.00 | 0.00 | 83 | 1015.7 |
| 20260505083009 | 65 | 37 | 0.9 | 5.2 | 0.00 | 0.00 | 0.00 | 82 | 1015.7 |
| 20260505081551 | 66 | 205 | 0.9 | 6.1 | 0.00 | 0.00 | 0.00 | 81 | 1015.5 |
| 20260505080022 | 65 | 274 | 1.7 | 6.1 | 0.00 | 0.00 | 0.00 | 82 | 1015.5 |
| 20260505074556 | 65 | 277 | 1.7 | 5.2 | 0.00 | 0.00 | 0.00 | 83 | 1015.5 |
| 20260505073026 | 65 | 278 | 0.9 | 5.2 | 0.00 | 0.00 | 0.00 | 82 | 1015.5 |
| 20260505071602 | 65 | 346 | 0.0 | 4.3 | 0.00 | 0.00 | 0.00 | 82 | 1015.4 |
| 20260505070041 | 65 | 138 | 2.6 | 7.0 | 0.00 | 0.00 | 0.00 | 83 | 1015.7 |
| 20260505064504 | 66 | 187 | 1.7 | 5.2 | 0.00 | 0.00 | 0.00 | 82 | 1015.7 |
| 20260505063039 | 66 | 273 | 0.9 | 6.1 | 0.00 | 0.00 | 0.00 | 81 | 1015.8 |
| 20260505061510 | 67 | 141 | 1.7 | 8.7 | 0.00 | 0.00 | 0.00 | 79 | 1016.1 |
| 20260505060039 | 67 | 262 | 2.6 | 8.7 | 0.00 | 0.00 | 0.00 | 80 | 1016.3 |
| 20260505054506 | 66 | 218 | 0.9 | 7.0 | 0.00 | 0.00 | 0.00 | 81 | 1016.4 |
| 20260505053105 | 66 | 217 | 0.9 | 7.8 | 0.00 | 0.00 | 0.00 | 81 | 1016.6 |
| 20260505051508 | 66 | 355 | 2.6 | 7.0 | 0.00 | 0.00 | 0.00 | 83 | 1016.7 |
| 20260505041515 | 66 | 327 | 0.0 | 4.3 | 0.00 | 0.00 | 0.00 | 82 | 1016.9 |
| 20260505040044 | 66 | 45 | 0.0 | 3.5 | 0.00 | 0.00 | 0.00 | 81 | 1017.0 |
| 20260505034524 | 66 | 60 | 0.0 | 4.3 | 0.00 | 0.00 | 0.00 | 79 | 1016.9 |
| 20260505033055 | 66 | 157 | 0.0 | 3.5 | 0.00 | 0.00 | 0.00 | 79 | 1016.8 |
| 20260505031529 | 66 | 170 | 0.0 | 4.3 | 0.00 | 0.00 | 0.00 | 79 | 1016.9 |
| 20260505030006 | 66 | 211 | 0.0 | 4.3 | 0.00 | 0.00 | 0.00 | 79 | 1016.9 |
| 20260505024543 | 66 | 155 | 0.0 | 3.5 | 0.00 | 0.00 | 0.00 | 79 | 1016.9 |
| 20260505023018 | 66 | 280 | 0.9 | 4.3 | 0.00 | 0.00 | 0.00 | 78 | 1016.8 |
| 20260505021558 | 66 | 265 | 0.0 | 1.7 | 0.00 | 0.00 | 0.00 | 77 | 1016.8 |
| 20260505020033 | 67 | 194 | 0.9 | 3.5 | 0.00 | 0.00 | 0.00 | 75 | 1016.7 |
| 20260505014510 | 67 | 261 | 0.0 | 3.5 | 0.00 | 0.00 | 0.00 | 73 | 1016.6 |
| 20260505013046 | 67 | 201 | 0.9 | 5.2 | 0.00 | 0.00 | 0.00 | 72 | 1016.7 |
| 20260505011544 | 67 | 35 | 0.9 | 7.0 | 0.00 | 0.00 | 0.00 | 71 | 1016.5 |
| 20260505010003 | 68 | 223 | 0.0 | 4.3 | 0.00 | 0.00 | 0.00 | 70 | 1016.5 |
| 20260505004538 | 68 | 200 | 0.9 | 7.0 | 0.00 | 0.00 | 0.00 | 69 | 1016.3 |
| 20260505003010 | 68 | 162 | 2.6 | 7.8 | 0.00 | 0.00 | 0.00 | 68 | 1016.3 |
| 20260505001604 | 68 | 217 | 1.7 | 7.0 | 0.00 | 0.00 | 0.00 | 67 | 1016.3 |
| 20260505000031 | 69 | 200 | 1.7 | 7.8 | 0.00 | 0.00 | 0.00 | 66 | 1016.4 |
| 20260504234600 | 69 | 185 | 1.7 | 6.1 | 0.00 | 0.00 | 0.00 | 64 | 1016.3 |
| 20260504233042 | 70 | 178 | 3.5 | 10.4 | 0.00 | 0.00 | 0.00 | 61 | 1016.1 |
| 20260504231511 | 71 | 225 | 5.2 | 11.3 | 0.00 | 0.00 | 0.00 | 57 | 1016.2 |
| 20260504230045 | 71 | 259 | 5.2 | 12.2 | 0.00 | 0.00 | 0.00 | 57 | 1016.1 |
| 20260504224517 | 72 | 200 | 3.5 | 13.0 | 0.00 | 0.00 | 0.00 | 57 | 1016.3 |
| 20260504223054 | 72 | 221 | 5.2 | 10.4 | 0.00 | 0.00 | 0.00 | 55 | 1016.3 |
| 20260504221528 | 72 | 255 | 5.2 | 13.9 | 0.00 | 0.00 | 0.00 | 54 | 1016.4 |
| 20260504220001 | 73 | 264 | 3.5 | 10.4 | 0.00 | 0.00 | 0.00 | 56 | 1016.4 |
| 20260504214538 | 72 | 211 | 6.1 | 12.2 | 0.00 | 0.00 | 0.00 | 57 | 1016.3 |